THOR ABLESTAR DEB, 480

Orbit data source: Space-Track

THOR ABLESTAR DEB, 480 is space debris in LEO originally from a launch on Thu, 29 Jun 1961 UTC launched from the Air Force Eastern Test Range (AFETR). Debris objects in space refer to the collection of defunct objects orbiting the Earth. Examples of debris include non-operational satellites, rocket bodies, and fragments generated from explosions, collisions, or faulty payload assembly.

Loading next visibility...
THOR ABLESTAR DEB details
Identifier
480, 1961-015FS
Orbit
LEO
Last TLE update11 hours ago
Origin
Flag of USUSAF SSD (US)
ManufacturerUnknown
MissionSpacecraft
Bus & MotorUnknown
MassUnknown
Launch date (UTC)
1961-06-29 (64 years ago)
Launch vehicleUnknown
Launch site
Air Force Eastern Test Range (AFETR)
Object type
Payload
Rocket body
Debris
Shape & HBRUnknown
Radar Cross SectionSmall (<0.1 m²)

Expand to show TLE details & history

TLE from 11 hours ago
0 THOR ABLESTAR DEB
1   480U 61015FS  25023.09529561  .00003912  00000-0  12398-2 0  9994
2   480  66.2396   5.4293 0071989 107.1216 253.7783 14.39631778281725
Epoch: 2025-01-23T02:17Z
Definitive object data (Epoch: 2025-01-23T02:17:13.54Z)
Latitude-0.00005°
Longitude-151.55488°
Altitude776.492 km
Speed7.459 km/s
True Right ascension00h 21m 43s
True Declination0° 00' 00"
Sunlit
Object was in daylight at TLE epoch
Visualization TLE readout
Latitude52.30667°
Longitude-7.2627°
Altitude717.318 km
Speed7.529 km/s
Apparent Right ascension05h 37m 31s
Apparent Declination17° 53' 19"
Sunlit
Object is in full shadow
Visualization observer readout
Local Sidereal Time14:02:33
Azimuth307.869° NW
Elevation-13.566°
Doppler factor1
Orbital elements
Apogee altitude809.511 km
Perigee altitude706.764 km
Semi-major axis7,136.274 km
Eccentricity0.0071989
Inclination66.2396°
RAAN5.4293°
Arg. of periapsis107.1216°
True anomaly252.98822°
Mean anomaly253.7783°
Eccentric anomaly253.38306°
Mean motion3.60028 °/min
BSTAR0.0012398
Orbital period99.99 mins
Loading maneuver chart data...

THOR ABLESTAR DEB Visibility forecast

Observer location: undefined°, undefined

Span
Click to sort rows by Start time (UTC) header in descending order
Start Az.
Max El. time (UTC)
Max El. Az.
Max El.
End time (UTC)
End Az.
10 mins2025-01-24 00:04:35.139Z198.483° SSW2025-01-24 00:09:35.139Z123.735° SE42.745°2025-01-24 00:14:35.139Z35.139° NE
5 mins2025-01-24 01:50:35.139Z282.504° WNW2025-01-24 01:52:35.139Z309.575° NW17.269°2025-01-24 01:55:35.139Z350.875° N
8 mins2025-01-24 08:50:35.139Z345.677° N2025-01-24 08:54:35.139Z66.694° ENE36.129°2025-01-24 08:58:35.139Z128.052° SE
5 mins2025-01-24 10:34:35.139Z284.087° WNW2025-01-24 10:36:35.139Z254.432° W19.012°2025-01-24 10:39:35.139Z212.237° SW
|